Homestead FAWN current weather conditions

sailwx.info

Wind from 008 at 5 knots

Air temperature 17.5° C
Dewpoint 15.6° C

Last reported at 2020-Feb-23 04:15 UTC.
Time now 2020-Feb-23 05:12 UTC

Location: N 25°31' W 080°30'.
View on Google Maps.

See reports from other nearby stations

  
Tides and Currents Weather Stations Pressure Air Temp Water Temp Dewpoint Dewpoint Depression Visibility Wind Speed Wind Dir Waves Ship Positions
date/time (UTC)wind fromknots sea level pressurealtimeterstation pressurevisibilityair tempwater tempwave heightnotes
2020-Feb-23 04:15 008 5 17.5
2020-Feb-23 04:00 006 6 18.0
2020-Feb-23 03:45 004 6 18.3
2020-Feb-23 03:30 005 5 18.4
2020-Feb-23 03:15 006 4 18.7
2020-Feb-23 03:00 021 5 19.0
2020-Feb-23 02:45 027 6 18.9
2020-Feb-23 02:30 032 6 19.1
2020-Feb-23 02:15 023 6 19.2
2020-Feb-23 02:00 023 7 19.4
2020-Feb-23 01:45 029 7 19.5
2020-Feb-23 01:30 022 6 19.5
2020-Feb-23 01:15 029 6 19.5
2020-Feb-23 01:00 029 5 19.6
2020-Feb-23 00:45 025 6 20.1
2020-Feb-23 00:30 023 5 20.3
2020-Feb-23 00:15 043 4 20.4
2020-Feb-23 00:00 040 5 20.4
2020-Feb-22 23:45 046 5 20.5
2020-Feb-22 23:30 046 6 20.8
2020-Feb-22 23:15 049 6 21.1
2020-Feb-22 23:00 048 7 21.4
2020-Feb-22 22:45 050 7 21.6
2020-Feb-22 22:30 047 8 21.8
2020-Feb-22 22:15 050 10 22.5
2020-Feb-22 22:00 056 11 22.1
2020-Feb-22 21:45 047 12 22.5
2020-Feb-22 21:30 048 9 23.0
2020-Feb-22 21:00 061 11 22.6
2020-Feb-22 20:45 070 10 22.4
2020-Feb-22 20:30 061 11 23.1
2020-Feb-22 20:15 048 10 22.5
2020-Feb-22 20:00 048 11 22.1
2020-Feb-22 19:45 054 13 22.9
2020-Feb-22 19:30 050 12 22.8
2020-Feb-22 19:15 048 14 23.1
2020-Feb-22 19:00 049 11 23.3
2020-Feb-22 18:45 065 13 23.7
2020-Feb-22 18:30 066 13 23.6
2020-Feb-22 18:15 048 11 23.3
2020-Feb-22 18:00 043 10 23.4
2020-Feb-22 17:45 053 11 23.8
2020-Feb-22 17:30 042 11 23.4
2020-Feb-22 17:15 046 10 22.9
2020-Feb-22 17:00 050 13 22.9
2020-Feb-22 16:45 038 11 22.9
2020-Feb-22 16:30 022 11 22.1
2020-Feb-22 16:15 020 10 22.0
2020-Feb-22 16:00 019 9 21.6
2020-Feb-22 15:45 021 9 21.5
2020-Feb-22 15:30 017 8 21.3
2020-Feb-22 15:15 023 8 20.9
2020-Feb-22 15:00 030 9 20.5
2020-Feb-22 14:45 026 8 19.6
2020-Feb-22 14:30 022 10 18.8
2020-Feb-22 14:15 019 9 17.8
2020-Feb-22 14:00 008 6 17.3
2020-Feb-22 13:45 013 9 16.3
2020-Feb-22 13:30 359 7 15.9
2020-Feb-22 13:15 001 8 15.1
2020-Feb-22 13:00 14.0
2020-Feb-22 12:45 348 6 13.0
2020-Feb-22 12:30 352 6 12.5
2020-Feb-22 12:15 349 6 12.2
2020-Feb-22 12:00 351 6 12.2
2020-Feb-22 11:45 348 8 12.2
2020-Feb-22 11:30 345 7 12.3
2020-Feb-22 11:15 347 8 12.2
2020-Feb-22 11:00 344 8 12.3
2020-Feb-22 10:45 345 7 12.4
2020-Feb-22 10:30 342 7 12.6
2020-Feb-22 10:15 345 7 12.6
2020-Feb-22 10:00 343 7 12.6
2020-Feb-22 09:45 339 6 12.6
2020-Feb-22 09:30 333 6 12.7
2020-Feb-22 09:15 337 8 12.9
2020-Feb-22 09:00 335 7 13.2
2020-Feb-22 08:45 344 9 13.5
2020-Feb-22 08:30 347 9 13.5
2020-Feb-22 08:15 345 9 13.5
2020-Feb-22 08:00 347 10 13.6
2020-Feb-22 07:45 346 9 13.7
2020-Feb-22 07:30 342 9 13.7
2020-Feb-22 07:15 342 8 13.8
2020-Feb-22 07:00 344 10 13.8
2020-Feb-22 06:45 344 9 13.8
2020-Feb-22 06:30 343 10 13.9
2020-Feb-22 06:15 340 10 14.2
2020-Feb-22 06:00 350 11 14.5
2020-Feb-22 05:45 349 11 14.6
2020-Feb-22 05:30 353 12 14.6
2020-Feb-22 05:15 347 11 14.6
2020-Feb-22 05:00 346 12 14.8
2020-Feb-22 04:45 358 13 14.9
2020-Feb-22 04:30 355 11 15.1
2020-Feb-22 04:15 356 12 15.1
2020-Feb-22 04:00 351 11 15.2
2020-Feb-22 03:45 356 11 15.3
2020-Feb-22 03:30 353 11 15.4
2020-Feb-22 03:15 356 11 15.5
2020-Feb-22 03:00 358 11 15.5
2020-Feb-22 02:45 357 11 15.8
2020-Feb-22 02:30 358 11 15.8
2020-Feb-22 02:15 357 13 16.0
2020-Feb-22 02:00 16.0
2020-Feb-22 01:45 357 12 16.3
2020-Feb-22 01:30 358 13 16.4
2020-Feb-22 01:15 355 11 16.7
2020-Feb-22 01:00 360 12 17.1
2020-Feb-22 00:45 359 13 17.2
2020-Feb-22 00:30 355 11 17.4
2020-Feb-22 00:15 358 10 17.7
2020-Feb-22 00:00 002 10 17.8
2020-Feb-21 23:45 355 10 17.8
2020-Feb-21 23:30 356 11 18.0
2020-Feb-21 23:15 359 9 18.2
2020-Feb-21 23:00 358 9 18.3
2020-Feb-21 22:45 001 9 18.5
2020-Feb-21 22:30 356 9 18.7
2020-Feb-21 22:15 358 9 18.8
2020-Feb-21 22:00 357 12 19.1
2020-Feb-21 21:45 356 12 19.2
2020-Feb-21 21:30 356 11 19.8
2020-Feb-21 21:15 353 12 19.5
2020-Feb-21 21:00 351 11 19.9
2020-Feb-21 20:45 347 11 19.8
2020-Feb-21 20:30 351 11 20.5
2020-Feb-21 20:15 358 10 21.2
2020-Feb-21 20:00 347 10 20.9
2020-Feb-21 19:45 359 11 20.8
2020-Feb-21 19:30 353 11 20.8
2020-Feb-21 19:15 358 10 21.5
2020-Feb-21 19:00 343 10 21.9
2020-Feb-21 18:45 347 10 21.9
2020-Feb-21 18:30 355 10 22.3
2020-Feb-21 18:15 354 11 22.5
2020-Feb-21 18:00 355 11 22.5
2020-Feb-21 17:45 352 10 23.1
2020-Feb-21 17:30 350 11 22.3
2020-Feb-21 17:15 351 9 21.7
2020-Feb-21 17:00 350 10 20.5
2020-Feb-21 16:45 340 11 21.3
2020-Feb-21 16:30 327 13 23.9
2020-Feb-21 16:15 295 11 27.3
2020-Feb-21 16:00 300 10 27.1
2020-Feb-21 15:45 303 9 26.7
2020-Feb-21 15:30 313 10 26.0
2020-Feb-21 15:15 304 9 25.6
2020-Feb-21 15:00 309 9 25.1
2020-Feb-21 14:45 315 8 24.4
2020-Feb-21 14:30 320 7 23.9
2020-Feb-21 14:15 322 6 23.0
2020-Feb-21 14:00 320 5 22.2
2020-Feb-21 13:45 329 4 21.6
2020-Feb-21 13:30 328 4 21.2
2020-Feb-21 13:15 329 3 21.1
2020-Feb-21 13:00 325 3 20.8
2020-Feb-21 12:45 320 3 20.6
2020-Feb-21 12:30 308 2 20.6
2020-Feb-21 12:15 308 3 20.6
2020-Feb-21 12:00 311 3 20.7
2020-Feb-21 11:45 313 3 20.7
2020-Feb-21 11:30 317 4 20.9
2020-Feb-21 11:15 320 2 20.8
2020-Feb-21 11:00 300 2 20.6
2020-Feb-21 10:45 293 2 20.8
2020-Feb-21 10:30 306 3 21.1
2020-Feb-21 10:15 309 4 21.3
2020-Feb-21 10:00 307 4 21.3
2020-Feb-21 09:45 302 2 21.2
2020-Feb-21 09:30 313 2 21.2
2020-Feb-21 09:15 308 2 21.1
2020-Feb-21 09:00 308 2 21.0
2020-Feb-21 08:45 312 2 21.0
2020-Feb-21 08:30 307 3 21.0
2020-Feb-21 08:15 302 2 21.1
2020-Feb-21 08:00 299 2 21.2
2020-Feb-21 07:45 298 2 21.4
2020-Feb-21 07:30 299 2 21.5
2020-Feb-21 07:00 307 3 21.9
2020-Feb-21 06:45 306 4 22.0
2020-Feb-21 06:30 306 3 22.1
2020-Feb-21 06:15 289 2 22.1
2020-Feb-21 06:00 288 2 22.2
2020-Feb-21 05:45 290 3 22.3
2020-Feb-21 05:30 286 3 22.4
2020-Feb-21 05:15 273 3 22.5
2020-Feb-21 05:00 277 3 22.6